sat.trackr.live / text

‹ back to catalog

STARLINK-34385

NORAD 64352 · 2025-126J

PAYLOAD ACTIVE UNKNOWN

§ Identity

Operator
Country
US
Launch date
2025-06-13
Launch site
AFWTR
Launch vehicle
Mass (kg)
RCS (m²)

Purposes: comms

External: N2YO · Heavens-Above · Gunter

§ Orbital elements

Epoch: 2026-09-20T09:45:25.105248Z

Period
94.14 min
Inclination
70.0011°
Eccentricity
0.0003245
Mean motion
15.29578099 rev/d
Perigee alt
474.8 km
Apogee alt
479.3 km
Semi-major
6,855.2 km
B*
3.6045e-4
RAAN
261.3129°
Arg perigee
278.8902°
Mean anomaly
81.1906°
Rev number
6,990

§ Raw data

STARLINK-343851 64352U 25126J   26263.40654057  .00010248  00000+0  36045-3 0  99912 64352  70.0011 261.3129 0003245 278.8902  81.1906 15.29578099 69909

JSON: /api/v1/satellites/64352 · /tle

For live sub-satellite position, see the globe view (requires WebGL).

§ Visibility from observer

Set your observer location to see the next 7 days of passes ≥ 10°. The values pass through the URL so the page stays shareable.

No JS? Fill the form by hand. The geolocation button needs JavaScript.